When you browse on this site, cookies collect data to enhance your experience and personalize the content and advertising you see.
Visit our Privacy Policy to learn more. By continuing to use the site, you agree to this use of cookies and data.
  • En España
  • Lista de países
  • Para 7 días
  • Temperatura del agua
  • Mapa Satelital
  • El tiempo en el mapa
  • Informadores
  • user-avatar
    Iniciar sesión

    Tiempo cada hora Kalian

    Hoy, 20 Julio, Sábado

    Tiempo Temperatura Precipitaciones Viento Presión Humedad
    00:00 +30°C° 0 mm 1 mps 750 mmHg 80%
    01:00 +30°C° 0 mm 1 mps 750 mmHg 81%
    02:00 +30°C° 0 mm 1 mps 750 mmHg 82%
    03:00 +29°C° 0.3 mm 1 mps 750 mmHg 84%
    04:00 +29°C° 0.3 mm 2 mps 750 mmHg 85%
    05:00 +27°C° 0 mm 0 mps 749 mmHg 86%
    06:00 +30°C° 0.3 mm 1 mps 750 mmHg 83%
    07:00 +30°C° 0.3 mm 1 mps 750 mmHg 80%
    08:00 +31°C° 0.3 mm 1 mps 750 mmHg 77%
    09:00 +31°C° 1 mm 1 mps 750 mmHg 75%
    10:00 +32°C° 1 mm 1 mps 750 mmHg 74%
    11:00 +32°C° 1 mm 1 mps 750 mmHg 72%
    12:00 +32°C° 1.4 mm 1 mps 750 mmHg 73%
    13:00 +32°C° 1.4 mm 2 mps 749 mmHg 74%
    14:00 +32°C° 1.4 mm 2 mps 749 mmHg 75%
    15:00 +31°C° 1.8 mm 2 mps 749 mmHg 77%
    16:00 +31°C° 1.8 mm 2 mps 748 mmHg 79%
    17:00 +31°C° 1.8 mm 2 mps 748 mmHg 81%
    18:00 +30°C° 1.2 mm 2 mps 748 mmHg 83%
    19:00 +30°C° 1.2 mm 2 mps 749 mmHg 84%
    20:00 +29°C° 1.2 mm 2 mps 749 mmHg 85%
    21:00 +29°C° 0.3 mm 2 mps 749 mmHg 86%
    22:00 +29°C° 0.3 mm 1 mps 749 mmHg 87%
    23:00 +29°C° 0.3 mm 1 mps 749 mmHg 87%

    Mañana, 21 Julio, Domingo

    Tiempo Temperatura Precipitaciones Viento Presión Humedad
    00:00 +29°C° 0.2 mm 1 mps 749 mmHg 88%
    01:00 +29°C° 0.2 mm 1 mps 749 mmHg 88%
    02:00 +29°C° 0.2 mm 1 mps 749 mmHg 89%
    03:00 +26°C° 0.8 mm 0 mps 749 mmHg 89%
    04:00 +26°C° 0.8 mm 0 mps 748 mmHg 90%
    05:00 +26°C° 0.8 mm 0 mps 748 mmHg 90%
    06:00 +27°C° 1.2 mm 0 mps 749 mmHg 89%
    07:00 +27°C° 1.2 mm 0 mps 749 mmHg 87%
    08:00 +29°C° 1.2 mm 1 mps 750 mmHg 85%
    09:00 +30°C° 1.4 mm 1 mps 750 mmHg 82%
    10:00 +31°C° 1.4 mm 1 mps 750 mmHg 79%
    11:00 +31°C° 1.4 mm 2 mps 750 mmHg 75%
    12:00 +32°C° 1.1 mm 2 mps 750 mmHg 73%
    13:00 +34°C° 1.1 mm 3 mps 749 mmHg 71%
    14:00 +34°C° 1.1 mm 3 mps 749 mmHg 69%
    15:00 +34°C° 1.1 mm 3 mps 749 mmHg 70%
    16:00 +33°C° 1.1 mm 3 mps 748 mmHg 71%
    17:00 +33°C° 1.1 mm 3 mps 748 mmHg 73%
    18:00 +31°C° 0.4 mm 3 mps 749 mmHg 76%
    19:00 +31°C° 0.4 mm 2 mps 749 mmHg 79%
    20:00 +30°C° 0.4 mm 2 mps 750 mmHg 83%
    21:00 +30°C° 0.1 mm 2 mps 750 mmHg 83%
    22:00 +30°C° 0.1 mm 2 mps 750 mmHg 84%
    23:00 +29°C° 0.1 mm 2 mps 750 mmHg 85%

    Pasado mañana, 22 Julio, Lunes

    Tiempo Temperatura Precipitaciones Viento Presión Humedad
    00:00 +29°C° 0 mm 2 mps 750 mmHg 86%
    01:00 +29°C° 0 mm 2 mps 749 mmHg 87%
    02:00 +29°C° 0 mm 2 mps 749 mmHg 88%
    03:00 +29°C° 0.5 mm 2 mps 749 mmHg 87%
    04:00 +29°C° 0.5 mm 1 mps 749 mmHg 87%
    05:00 +29°C° 0.5 mm 1 mps 749 mmHg 87%
    06:00 +29°C° 0.3 mm 2 mps 749 mmHg 85%
    07:00 +29°C° 0.3 mm 2 mps 750 mmHg 83%
    08:00 +30°C° 0.3 mm 2 mps 750 mmHg 81%
    09:00 +31°C° 1.4 mm 2 mps 750 mmHg 78%
    10:00 +31°C° 1.4 mm 2 mps 750 mmHg 75%
    11:00 +32°C° 1.4 mm 2 mps 750 mmHg 72%
    12:00 +33°C° 2.3 mm 3 mps 750 mmHg 72%
    13:00 +34°C° 2.3 mm 3 mps 749 mmHg 72%
    14:00 +34°C° 2.3 mm 4 mps 749 mmHg 71%
    15:00 +33°C° 1.8 mm 4 mps 748 mmHg 73%
    16:00 +33°C° 1.8 mm 4 mps 748 mmHg 74%
    17:00 +33°C° 1.8 mm 3 mps 748 mmHg 76%
    18:00 +31°C° 1 mm 3 mps 748 mmHg 79%
    19:00 +30°C° 1 mm 3 mps 749 mmHg 82%
    20:00 +30°C° 1 mm 2 mps 749 mmHg 85%
    21:00 +30°C° 0.7 mm 2 mps 750 mmHg 85%
    22:00 +30°C° 0.7 mm 2 mps 750 mmHg 86%
    23:00 +29°C° 0.7 mm 2 mps 750 mmHg 86%

    23 Julio, Martes

    Tiempo Temperatura Precipitaciones Viento Presión Humedad
    00:00 +29°C° 2.7 mm 2 mps 749 mmHg 88%
    01:00 +29°C° 2.7 mm 2 mps 749 mmHg 90%
    02:00 +28°C° 2.7 mm 2 mps 749 mmHg 92%
    03:00 +28°C° 0.7 mm 2 mps 748 mmHg 91%
    04:00 +28°C° 0.7 mm 1 mps 748 mmHg 90%
    05:00 +28°C° 0.7 mm 1 mps 748 mmHg 89%
    06:00 +29°C° 0.6 mm 1 mps 749 mmHg 88%
    07:00 +29°C° 0.6 mm 1 mps 749 mmHg 86%
    08:00 +29°C° 0.6 mm 1 mps 750 mmHg 84%
    09:00 +30°C° 0.7 mm 1 mps 750 mmHg 81%
    10:00 +31°C° 0.7 mm 2 mps 750 mmHg 77%
    11:00 +32°C° 0.7 mm 2 mps 750 mmHg 74%
    12:00 +32°C° 1.4 mm 2 mps 749 mmHg 73%
    13:00 +33°C° 1.4 mm 3 mps 749 mmHg 73%
    14:00 +34°C° 1.4 mm 3 mps 748 mmHg 72%
    15:00 +33°C° 1.2 mm 3 mps 748 mmHg 74%
    16:00 +33°C° 1.2 mm 3 mps 748 mmHg 76%
    17:00 +31°C° 1.2 mm 3 mps 748 mmHg 78%
    18:00 +31°C° 0.5 mm 2 mps 748 mmHg 80%
    19:00 +30°C° 0.5 mm 2 mps 749 mmHg 83%
    20:00 +30°C° 0.5 mm 2 mps 749 mmHg 86%
    21:00 +30°C° 0.8 mm 2 mps 749 mmHg 86%
    22:00 +30°C° 0.8 mm 2 mps 750 mmHg 86%
    23:00 +29°C° 0.8 mm 1 mps 750 mmHg 87%

    24 Julio, Miércoles

    Tiempo Temperatura Precipitaciones Viento Presión Humedad
    00:00 +29°C° 0.5 mm 1 mps 749 mmHg 87%
    01:00 +29°C° 0.5 mm 1 mps 749 mmHg 87%
    02:00 +29°C° 0.5 mm 1 mps 748 mmHg 87%
    03:00 +29°C° 0.9 mm 1 mps 748 mmHg 87%
    04:00 +29°C° 0.9 mm 1 mps 749 mmHg 88%
    05:00 +29°C° 0.9 mm 1 mps 749 mmHg 88%
    06:00 +29°C° 0.7 mm 1 mps 749 mmHg 86%
    07:00 +29°C° 0.7 mm 1 mps 749 mmHg 85%
    08:00 +30°C° 0.7 mm 1 mps 749 mmHg 83%
    09:00 +30°C° 0.6 mm 2 mps 749 mmHg 80%
    10:00 +31°C° 0.6 mm 2 mps 749 mmHg 77%
    11:00 +32°C° 0.6 mm 2 mps 749 mmHg 74%
    12:00 +33°C° 1.2 mm 3 mps 749 mmHg 73%
    13:00 +33°C° 1.2 mm 3 mps 748 mmHg 73%
    14:00 +34°C° 1.2 mm 4 mps 748 mmHg 73%
    15:00 +33°C° 0.9 mm 4 mps 748 mmHg 74%
    16:00 +33°C° 0.9 mm 4 mps 748 mmHg 76%
    17:00 +31°C° 0.9 mm 3 mps 748 mmHg 78%
    18:00 +31°C° 0.6 mm 3 mps 748 mmHg 80%
    19:00 +30°C° 0.6 mm 2 mps 749 mmHg 82%
    20:00 +30°C° 0.6 mm 2 mps 750 mmHg 84%
    21:00 +30°C° 0.3 mm 2 mps 750 mmHg 84%
    22:00 +30°C° 0.3 mm 2 mps 750 mmHg 84%
    23:00 +29°C° 0.3 mm 2 mps 750 mmHg 85%

    25 Julio, Jueves

    Tiempo Temperatura Precipitaciones Viento Presión Humedad
    00:00 +29°C° 0.5 mm 2 mps 750 mmHg 85%
    01:00 +29°C° 0.5 mm 2 mps 750 mmHg 86%
    02:00 +29°C° 0.5 mm 2 mps 749 mmHg 86%
    03:00 +29°C° 0.7 mm 2 mps 749 mmHg 86%
    04:00 +29°C° 0.7 mm 2 mps 749 mmHg 86%
    05:00 +29°C° 0.7 mm 2 mps 749 mmHg 87%
    06:00 +29°C° 1.5 mm 2 mps 750 mmHg 86%
    07:00 +29°C° 1.5 mm 2 mps 750 mmHg 85%
    08:00 +29°C° 1.5 mm 2 mps 751 mmHg 85%
    09:00 +30°C° 1.6 mm 2 mps 751 mmHg 82%
    10:00 +31°C° 1.6 mm 3 mps 751 mmHg 78%
    11:00 +31°C° 1.6 mm 3 mps 751 mmHg 75%
    12:00 +31°C° 1.7 mm 3 mps 750 mmHg 75%
    13:00 +32°C° 1.7 mm 4 mps 750 mmHg 75%
    14:00 +32°C° 1.7 mm 4 mps 750 mmHg 75%
    15:00 +32°C° 1.5 mm 4 mps 749 mmHg 79%
    16:00 +30°C° 1.5 mm 4 mps 749 mmHg 82%
    17:00 +29°C° 1.5 mm 4 mps 749 mmHg 86%
    18:00 +29°C° 2.3 mm 4 mps 750 mmHg 88%
    19:00 +28°C° 2.3 mm 4 mps 750 mmHg 90%
    20:00 +28°C° 2.3 mm 5 mps 750 mmHg 91%
    21:00 +28°C° 3.4 mm 4 mps 751 mmHg 92%
    22:00 +27°C° 3.4 mm 3 mps 751 mmHg 93%
    23:00 +27°C° 3.4 mm 2 mps 751 mmHg 93%
    Mostrar más